Regional Weather Roundup
Issued by NWS

Home | Current Version | Previous Version | Text Only | Print | Product List | Glossary Off
Versions: 1 2 3 4 5 6 7 8 9 10 11 12 13 14 15 16 17 18 19 20 21 22 23 24 25 26 27 28 29 30 31 32 33 34 35 36 37 38 39 40 41 42 43 44 45 46 47 48 49 50

866
ASUS43 KOAX 151702
RWRNE

WEATHER ROUNDUP FOR NEBRASKA
NATIONAL WEATHER SERVICE OMAHA NE
1100 AM CST FRI DEC 15 2017

NOTES: SATELLITE DATA IS BEING USED TO AUGMENT CLOUD COVER ABOVE
       12000 FEET.
       "FAIR" INDICATES FEW OR NO CLOUDS BELOW 12,000 FEET WITH NO
       SIGNIFICANT WEATHER AND/OR OBSTRUCTIONS TO VISIBILITY.


NEZ001>004-019>022-054>056-151800-
NEBRASKA PANHANDLE

CITY           SKY/WX    TMP DP  RH WIND       PRES   REMARKS
SCOTTSBLUFF    SUNNY     41  20  43 NW10      29.96S
ALLIANCE       SUNNY     46  17  31 W20G25    29.92S
CHADRON        SUNNY     40  19  43 W5        29.92S
GORDON         FAIR      42  21  43 W15G24    29.88F
KIMBALL        SUNNY     45  14  28 W21G28    29.99S
SIDNEY         SUNNY     48  14  25 W20       29.98R
$$

NEZ057>060-069>072-079>082-151800-
SOUTHWEST NEBRASKA

CITY           SKY/WX    TMP DP  RH WIND       PRES   REMARKS
NORTH PLATTE   SUNNY     34  20  56 W15       29.99S WCI  24
IMPERIAL       SUNNY     38  18  44 W15       30.01R WCI  29
LEXINGTON      SUNNY     37  23  56 W7        29.99F WCI  32
MCCOOK         SUNNY     35  19  52 W10       30.03F WCI  27
OGALLALA       SUNNY     35  22  59 SW5       29.99S WCI  31
$$

NEZ005>010-023>029-035>040-094-151800-
NORTH CENTRAL NEBRASKA

CITY           SKY/WX    TMP DP  RH WIND       PRES   REMARKS
VALENTINE      CLOUDY    35  25  66 SW10      29.87F WCI  27
AINSWORTH      SUNNY     35  27  72 W10G17    29.90R WCI  27
BROKEN BOW     SUNNY     33  23  66 W10       29.95S WCI  25
O`NEILL        SUNNY     35  27  75 W10       29.91S WCI  27
ORD            MOSUNNY   34  25  69 SW10      29.94F WCI  26
THEDFORD       SUNNY     39  26  60 W12       29.92S WCI  31
$$

NEZ041-046>049-061>064-073>077-083>087-151800-
SOUTH CENTRAL NEBRASKA

CITY           SKY/WX    TMP DP  RH WIND       PRES   REMARKS
GRAND ISLAND   SUNNY     33  25  72 SW15      29.98F WCI  23
AURORA         SUNNY     34  27  77 SW16      29.99F WCI  23
HASTINGS       SUNNY     35  26  69 SW10      30.01F WCI  27
HEBRON         SUNNY     36  29  78 SW12      30.07F WCI  28
HOLDREGE       SUNNY     35  24  63 W15       30.00F WCI  25
KEARNEY        SUNNY     33  22  63 SW10      30.00F WCI  25
$$

NEZ011>018-030>034-042>045-151800-
NORTHEAST NEBRASKA

CITY           SKY/WX    TMP DP  RH WIND       PRES   REMARKS
NORFOLK        CLOUDY    33  25  72 SW14      29.93F WCI  23
ALBION         CLOUDY    33  26  76 W6        29.96S WCI  27
BLAIR          CLOUDY    37  26  66 SW12      30.00F WCI  29
COLUMBUS       CLOUDY    37  26  64 SW15      29.98F WCI  28
FREMONT        CLOUDY    38  26  61 SW12      30.00F WCI  30
TEKAMAH        CLOUDY    39  25  57 SW17      29.98F WCI  30
WAYNE          CLOUDY    37  24  59 SW8       29.94F WCI  30
$$

NEZ050>053-065>068-078-088>093-151800-
SOUTHEAST NEBRASKA

CITY           SKY/WX    TMP DP  RH WIND       PRES   REMARKS
LINCOLN        CLOUDY    39  27  62 SW17      30.03F WCI  30
OMAHA EPPLEY   CLOUDY    39  24  55 SW14      30.02F WCI  31
BEATRICE       SUNNY     39  30  70 SW16      30.06F WCI  30
FALLS CITY     SUNNY     41  21  44 W14       30.11S
NEBRASKA CITY  MOSUNNY   41  22  47 SW16      30.07S
PLATTSMOUTH    CLOUDY    39  26  60 SW17      30.04F WCI  30
$$

NEZ044-045-051>053-067-151800-
OMAHA AREA

CITY           SKY/WX    TMP DP  RH WIND       PRES   REMARKS
OMAHA EPPLEY   CLOUDY    39  24  55 SW14      30.02F WCI  31
BLAIR          CLOUDY    37  26  66 SW12      30.00F WCI  29
FREMONT        CLOUDY    38  26  61 SW12      30.00F WCI  30
MILLARD        CLOUDY    38  26  60 SW10G18   30.03F WCI  31
OFFUTT AFB     CLOUDY    40  24  52 SW12      30.02F WCI  33
PLATTSMOUTH    CLOUDY    39  26  60 SW17      30.04F WCI  30
WAHOO          FAIR      39  26  59 SW15      30.01F WCI  30
$$




USA.gov is the U.S. government's official web portal to all federal, state and local government web resources and services.